CZ-3B R/B (44338 NORAD) Tracking and Keplerian Element Data

This shows tracking and keplerian element data for the satellite.

Feedback or suggestion? Click here.




ElementValue
Catalog44338
NameCZ-3B R/B
Epoch Orbit68
Epoch Day203.94451073
Epoch Year2019
RAAN170.9038
Inclination28.5713
Eccentricity0.7230942
Argument of Perigee197.0408
Mean Anonmoly111.9727
Mean Motion2.39501316
Decay Rate0.00018081
L11 44338U 19035B 19203.94451073 .00018081 11208-5 31411-3 0 9996
L22 44338 28.5713 170.9038 7230942 197.0408 111.9727 2.39501316 686

Live tracking and technical data element details for CZ-3B R/B (NORAD 44338). CZ-3B R/B can be tracked NOW for your location showing map with azimuth and elevation plus other details from your city location.

Track the satellite on the map from your city or location and see movement details for azimuth, elevation, latitude, longitude, range, height, and movement on the map or in text.







IsCatalogInMostPopularTable: catalog: 44338, numindb: 11
Update: records affected: 1



GetName: 44338 CZ-3B R/B

Hit Count: updated at: Wed, 23 Oct 2019 00:09:54 GMT